Temperature
30 31 32 32 32 32 32 32 31 31 31 31 31 31 31 31 30 29 28 28 27 26 25 24 23 23 22 22 21 21 21 20 19 19 19 19 19 19 18 18 18 19 19 19
29 30 31 31 31 32 32 32 32 31 31 32 31 31 30 30 30 29 28 27 26 25 24 23 23 23 22 22 21 21 21 20 20 19 19 19 19 18 18 18 18 18 18 18
27 29 30 30 31 32 32 32 32 31 31 31 30 30 30 29 29 28 28 27 26 25 24 23 23 23 22 22 21 21 21 20 20 19 19 19 19 18 18 18 18 18 18 18
27 27 27 30 32 32 32 32 32 32 31 31 30 29 29 29 28 28 27 26 25 25 24 23 23 22 22 21 21 21 20 20 20 19 19 19 18 18 18 18 18 18 18 18
27 27 28 29 31 32 31 31 32 31 31 30 30 29 28 28 28 27 26 25 25 24 24 23 23 22 22 21 21 20 20 20 20 19 19 19 18 18 18 18 18 18 18 18
26 26 26 29 31 32 31 29 31 31 31 30 30 29 28 27 27 26 25 25 24 24 23 23 22 22 21 21 20 20 20 20 20 19 19 19 19 18 18 18 18 18 18 18
25 25 27 29 31 31 28 28 30 30 30 29 29 28 27 26 25 25 24 24 23 23 23 22 22 21 21 20 20 20 20 19 19 19 19 19 19 18 18 18 18 18 18 18
25 24 26 29 29 29 27 28 28 28 28 27 26 26 26 25 24 24 23 23 22 22 22 22 21 21 20 20 20 19 19 19 19 19 19 18 18 18 18 18 18 17 17 17
26 25 26 27 27 27 27 27 27 27 26 26 26 25 25 24 23 23 23 22 22 21 21 21 21 20 20 20 19 19 19 19 19 18 18 18 18 18 18 18 17 17 17 17
25 26 26 26 26 26 26 26 26 26 25 25 24 24 23 23 22 22 22 21 21 21 20 20 20 20 20 19 19 19 19 19 18 18 18 18 18 18 18 18 17 17 17 17
25 25 25 25 25 25 25 25 25 25 25 24 24 23 23 22 21 21 21 20 20 20 19 19 19 19 19 19 19 18 18 18 18 18 18 18 18 18 18 18 18 18 18 18
23 24 24 24 23 23 23 24 24 24 23 23 23 22 22 21 21 20 20 20 20 19 19 19 18 18 18 18 18 18 18 17 17 17 18 18 18 18 18 18 18 18 18 18
22 22 22 22 22 22 22 22 23 22 22 22 22 22 21 21 20 20 20 19 19 19 18 18 18 18 18 18 17 17 17 17 17 17 17 17 17 17 17 17 17 17 17 17
20 20 21 21 21 21 21 21 22 22 21 21 21 21 21 20 20 19 19 19 19 18 18 17 17 17 17 17 17 17 17 17 17 17 17 17 17 17 17 17 17 17 17 17
19 19 20 20 20 21 21 21 21 21 21 20 20 20 20 20 19 19 18 18 18 18 17 17 17 17 17 17 16 16 16 16 17 17 17 17 17 17 17 17 17 17 17 17
19 19 19 19 20 20 20 20 20 20 20 20 19 19 19 19 19 18 18 18 17 17 17 17 16 16 16 16 16 16 16 16 17 17 17 17 17 17 17 17 17 17 17 17
18 18 19 19 19 19 19 19 19 19 19 19 19 18 18 18 18 18 17 17 17 17 16 16 16 16 16 16 16 16 16 16 16 16 16 16 17 17 17 17 17 17 16 16
18 18 18 18 18 19 19 19 19 19 19 19 18 18 18 17 17 17 17 16 16 16 16 16 16 16 16 16 16 16 16 16 16 16 16 16 16 16 16 16 16 16 16 16
18 18 17 18 18 18 18 18 18 18 18 18 18 17 17 17 17 16 16 16 16 16 15 15 15 15 15 15 15 15 16 16 16 16 16 16 16 16 16 16 16 15 15 15
17 17 17 17 18 18 18 17 17 17 17 17 17 17 16 16 16 16 16 16 16 15 15 15 15 15 15 15 15 15 15 16 16 16 15 15 15 15 15 15 15 15 15 14
17 17 17 17 17 17 17 17 17 17 17 16 16 16 16 16 15 15 15 15 15 15 15 15 15 15 15 15 15 15 15 15 15 15 15 15 15 15 15 14 14 14 14 14
16 16 16 16 16 16 16 16 16 16 16 16 16 15 15 15 15 15 15 15 15 15 15 15 14 14 14 14 14 14 15 14 15 15 15 15 14 14 14 14 14 13 13 13
15 15 15 15 15 15 15 15 15 15 15 15 15 15 15 15 15 15 15 15 15 15 14 14 14 14 14 14 14 14 14 14 14 14 14 14 14 14 13 13 13 13 13 13
15 15 15 15 14 14 14 15 15 15 15 15 15 15 14 14 14 14 14 14 14 14 14 14 14 14 14 14 14 14 14 13 13 14 14 13 13 13 13 12 12 12 12 12
14 14 14 14 14 14 14 14 14 14 14 14 14 14 14 14 14 14 14 14 14 14 13 13 13 13 13 13 13 13 13 13 12 12 13 13 12 12 12 12 12 11 11 11
14 14 14 14 14 14 14 14 14 14 14 14 14 14 14 14 14 14 14 13 13 13 13 13 13 13 13 13 12 12 12 12 12 12 12 12 12 12 11 11 11 11 10 10
13 13 13 13 14 14 14 14 14 14 14 14 14 14 14 14 13 13 13 13 13 13 13 13 13 12 12 12 12 12 12 12 11 11 11 11 11 11 11 10 10 10 9 9
Wind_Speed
17 17 14 13 15 17 17 15 12 8 8 7 6 5 6 7 7 8 7 7 7 6 7 8 7 7 7 7 7 7 8 9 9 8 6 6 5 5 4 4 5 4 4 3
16 17 16 16 16 16 15 14 13 11 8 5 4 4 4 6 7 8 7 7 6 6 6 7 7 8 7 7 7 7 7 8 8 8 7 6 6 5 5 4 4 4 4 4
14 16 17 19 16 15 15 15 13 11 8 5 4 4 4 5 7 7 7 6 5 6 7 7 7 7 8 7 7 7 7 7 7 8 7 7 7 6 6 5 5 4 4 4
12 13 17 13 12 14 15 13 11 8 6 5 4 4 4 5 6 6 6 6 5 5 7 7 8 8 7 7 6 6 6 7 7 7 7 7 6 6 5 5 5 4 4 4
11 14 15 13 12 13 12 11 9 8 6 6 6 6 5 5 7 6 6 5 4 4 5 6 6 7 7 6 6 6 6 6 7 7 7 7 7 6 5 5 5 5 4 4
11 13 14 11 10 10 8 9 8 7 6 6 8 8 5 6 6 6 5 4 4 3 3 5 5 6 6 6 6 6 5 5 5 6 6 7 7 6 5 5 5 5 5 5
14 14 11 8 7 7 10 5 2 3 3 3 2 1 5 6 6 5 4 4 3 4 3 3 4 5 5 5 5 5 4 4 4 5 5 6 6 5 5 6 6 6 6 5
12 14 11 6 7 6 1 2 1 1 1 2 4 4 5 5 5 4 4 4 3 3 4 3 4 5 5 4 3 3 3 4 3 4 6 6 6 6 6 7 7 7 6 6
7 7 3 4 4 2 2 1 1 0 1 3 4 4 4 5 5 4 4 3 3 4 4 4 3 3 4 3 3 3 3 3 3 3 4 4 5 6 6 6 7 7 7 7
4 5 4 3 3 3 2 1 1 1 2 4 4 4 4 5 4 4 4 3 4 4 4 4 3 2 2 3 3 3 3 3 4 4 5 5 5 6 6 7 7 7 6 6
7 5 4 4 3 4 3 2 1 1 1 2 4 5 5 4 5 4 3 3 4 4 4 3 2 2 2 2 2 3 3 4 4 5 5 5 5 4 5 5 5 6 5 4
5 3 4 3 3 4 4 3 2 0 1 2 2 3 5 5 5 4 4 3 4 4 4 3 2 2 1 1 1 2 3 4 5 5 5 5 5 4 3 4 4 5 5 4
6 6 5 4 4 4 4 4 3 1 1 1 1 2 4 5 5 4 4 4 4 4 4 3 3 2 1 1 1 2 3 4 5 5 5 5 5 5 4 3 3 4 5 5
5 6 5 5 4 4 4 4 4 2 2 2 1 1 3 4 5 5 4 4 4 4 4 3 2 1 1 1 1 3 4 5 5 5 5 5 5 5 5 5 5 5 6 8
8 7 5 5 5 5 5 3 3 3 2 2 2 2 3 4 4 4 4 4 4 4 4 3 2 1 1 2 2 3 4 4 4 5 5 5 4 4 5 4 4 4 4 5
9 8 6 6 7 7 6 5 5 4 3 2 2 2 2 2 3 4 4 4 4 3 3 3 2 1 2 2 2 4 4 5 5 5 6 5 4 4 5 4 4 5 4 2
9 8 7 8 8 8 7 6 5 4 4 3 2 2 3 3 3 3 3 3 3 3 2 2 2 2 3 2 3 5 5 4 6 6 5 4 4 4 4 4 5 4 3 2
9 8 8 8 8 7 5 4 4 4 4 3 3 3 3 4 3 3 2 2 3 2 2 2 2 3 3 3 4 5 5 4 4 5 4 4 4 4 4 4 4 5 3 2
9 9 8 8 7 5 4 3 4 3 2 2 2 2 3 3 3 3 2 2 2 3 3 2 3 4 4 4 4 5 6 6 4 4 4 4 5 4 4 4 4 3 3 2
6 7 6 6 6 5 5 4 3 3 2 1 1 1 2 2 2 2 2 3 3 2 1 1 3 4 4 4 5 5 6 6 5 4 3 3 3 3 3 3 3 3 3 3
5 5 4 4 4 4 3 3 2 2 1 1 1 2 2 1 2 2 2 3 1 1 1 2 3 3 3 3 4 5 5 5 5 4 3 3 3 3 3 3 3 3 2 2
2 2 3 3 3 3 2 2 2 3 2 2 2 2 2 2 3 3 3 3 2 1 2 3 2 1 2 3 4 4 4 4 4 4 4 3 3 2 2 2 3 3 2 1
1 1 1 2 2 2 1 2 2 2 2 2 2 2 3 2 3 3 3 2 2 2 1 1 1 1 2 4 4 4 4 4 4 4 2 2 2 2 3 3 3 2 1 1
0 1 2 2 2 1 2 2 2 2 2 2 2 3 3 3 3 3 2 1 2 2 1 1 2 1 3 3 4 3 3 3 3 4 3 3 3 2 2 3 3 2 2 2
1 1 1 2 2 3 3 3 3 3 3 3 3 3 3 2 2 1 0 1 2 2 1 2 2 2 2 2 2 2 3 3 3 4 4 4 3 3 3 3 3 3 2 2
2 2 2 2 2 2 3 3 3 3 3 2 2 1 1 0 0 0 1 1 0 1 0 0 1 1 1 2 2 2 2 3 3 3 4 3 3 3 3 3 3 3 2 3
3 3 3 3 4 3 3 3 2 2 2 1 1 0 0 1 1 0 1 1 1 1 1 1 1 1 1 1 1 2 2 2 2 3 3 3 3 3 4 4 4 3 2 3
Wind_Direction
257 264 262 248 239 234 238 249 256 249 225 206 198 197 170 154 154 153 153 160 153 152 151 163 166 162 162 166 166 169 170 172 173 175 178 183 189 193 194 201 208 205 210 216
258 258 260 257 245 241 242 244 248 248 244 222 194 186 174 168 166 160 164 167 165 156 152 158 166 163 163 162 166 168 174 174 169 173 178 187 192 194 198 204 213 212 214 218
255 256 256 247 242 242 245 243 245 240 236 203 186 194 185 163 164 169 171 162 164 170 166 166 172 172 168 168 169 171 178 177 174 180 185 190 199 197 204 206 207 218 221 217
250 250 246 245 250 251 248 246 246 240 221 191 189 184 198 178 167 167 166 162 161 174 171 174 177 176 169 172 172 177 180 183 183 186 190 191 198 203 202 204 207 214 223 222
247 248 246 247 246 244 244 244 238 236 216 198 189 192 201 169 160 157 152 142 146 170 175 167 175 172 162 172 178 185 187 187 188 190 192 192 197 204 205 205 210 214 216 220
241 249 247 237 239 247 238 237 235 228 221 206 201 215 179 148 134 131 127 130 146 165 165 161 171 166 165 178 185 189 189 190 192 187 193 198 198 201 204 209 214 219 216 219
240 246 253 270 251 238 232 231 237 228 238 220 210 125 119 116 113 115 122 128 144 155 153 142 150 152 162 179 192 188 183 185 197 190 193 202 198 200 205 211 216 223 224 226
234 242 243 278 266 248 261 38 306 271 197 131 122 125 129 120 114 120 123 134 149 141 137 134 139 148 160 175 177 166 170 187 200 206 214 212 200 205 208 214 219 225 226 233
226 233 251 308 319 347 4 18 14 204 186 163 162 159 147 131 129 131 122 123 136 125 119 118 118 140 161 158 151 160 175 195 207 221 219 215 207 211 214 220 229 230 226 232
242 228 233 262 297 325 332 350 302 210 180 169 168 165 153 142 131 129 127 138 133 126 121 115 119 129 139 146 156 169 191 206 213 227 222 219 216 215 221 222 230 236 232 232
237 235 245 249 278 301 301 307 295 267 245 185 177 169 157 143 136 135 136 141 137 127 122 110 113 133 128 142 177 198 211 220 226 234 231 220 227 240 229 226 225 233 241 240
259 289 279 269 288 301 314 310 297 250 236 223 200 181 154 145 138 143 145 137 134 130 128 122 115 106 102 166 209 225 227 232 236 239 227 221 220 237 270 248 234 216 223 240
292 292 286 296 296 296 297 300 283 238 246 231 195 191 151 142 141 142 139 141 137 134 128 133 133 129 154 208 232 240 248 252 254 253 242 232 230 227 232 248 253 250 238 235
306 297 278 277 281 286 279 280 273 238 239 253 205 176 151 149 148 150 159 157 148 141 137 136 132 133 195 205 234 250 254 254 261 262 263 256 249 243 236 234 233 241 236 227
288 278 267 274 280 278 274 261 250 238 224 221 192 181 176 166 160 164 160 158 153 152 151 149 149 182 254 232 247 261 258 260 262 267 268 266 258 256 254 249 245 240 234 213
268 266 258 256 260 263 266 256 238 226 229 222 194 182 175 169 168 154 154 165 168 171 158 161 185 231 259 258 267 263 256 256 262 270 272 271 269 267 264 261 260 257 251 229
265 262 260 257 254 254 251 252 245 224 216 212 191 197 188 175 158 157 176 171 156 160 171 185 219 238 250 267 280 273 261 252 245 263 269 275 280 277 273 269 269 266 259 231
256 259 260 260 262 255 253 256 255 242 227 200 182 182 185 175 173 170 178 169 164 179 193 211 239 259 260 266 271 275 273 268 264 266 273 274 276 274 270 273 278 280 271 240
248 246 251 258 261 260 254 254 250 238 208 180 179 192 200 194 181 168 172 184 199 219 217 213 231 251 260 263 269 270 270 273 270 268 275 269 271 275 278 278 281 293 297 278
239 237 239 245 247 246 246 250 241 207 192 174 171 172 185 187 173 182 200 227 242 246 213 223 246 260 261 262 265 264 270 274 277 277 271 271 281 290 289 288 297 301 299 295
227 226 230 245 253 252 250 254 231 198 197 208 200 187 168 182 203 203 230 251 219 148 208 226 246 259 263 279 265 270 272 274 280 282 273 274 278 284 290 297 298 294 299 311
231 233 236 250 268 286 295 288 250 230 214 215 216 196 190 211 233 239 240 247 230 180 224 245 261 2 329 290 272 277 282 281 284 285 290 296 297 293 293 298 297 299 304 313
210 235 249 261 275 285 273 263 249 234 220 220 219 217 230 243 256 262 262 244 211 175 227 281 84 62 301 278 279 281 285 290 293 293 303 320 313 309 311 308 303 304 311 295
207 245 255 239 238 229 225 225 236 227 211 214 212 208 232 249 252 254 253 185 138 174 232 154 162 218 257 277 292 301 306 312 320 320 318 316 317 319 319 318 320 317 313 308
251 269 273 231 213 209 203 211 218 216 218 221 216 205 226 239 246 261 112 118 132 146 159 154 186 224 263 297 317 329 331 330 326 317 319 323 321 325 336 340 345 343 342 353
231 237 235 231 234 233 225 222 229 229 229 223 222 222 234 236 95 151 201 238 235 158 193 142 159 200 277 314 335 340 334 332 335 326 329 336 337 348 3 5 2 18 34 35
223 229 231 238 235 227 226 226 226 229 227 214 256 271 209 252 263 238 244 251 248 236 235 218 221 202 254 313 339 347 351 349 345 341 344 355 5 14 26 34 28 31 41 47
Height
1457 1451 1449 1450 1452 1451 1456 1457 1464 1464 1463 1462 1460 1463 1465 1469 1473 1477 1482 1485 1488 1491 1493 1497 1499 1502 1504 1507 1509 1512 1514 1516 1517 1519 1521 1522 1524 1525 1526 1527 1528 1528 1529 1529
1461 1453 1450 1452 1449 1448 1450 1450 1454 1457 1459 1456 1458 1461 1464 1468 1472 1476 1481 1484 1487 1490 1492 1495 1498 1500 1502 1505 1507 1509 1511 1514 1515 1517 1518 1519 1521 1522 1523 1524 1525 1526 1526 1526
1468 1458 1454 1458 1448 1447 1448 1445 1449 1457 1456 1455 1458 1462 1464 1468 1472 1475 1479 1483 1486 1489 1491 1493 1496 1498 1500 1503 1505 1507 1509 1511 1513 1514 1516 1517 1518 1519 1520 1521 1522 1523 1523 1523
1466 1466 1476 1452 1437 1439 1442 1442 1443 1447 1450 1454 1459 1462 1466 1468 1471 1475 1478 1482 1485 1487 1489 1491 1494 1496 1499 1501 1503 1504 1506 1508 1510 1511 1513 1514 1515 1516 1517 1518 1518 1519 1520 1520
1467 1468 1461 1447 1438 1438 1443 1445 1442 1445 1448 1453 1457 1462 1465 1467 1470 1474 1477 1480 1483 1486 1488 1490 1492 1494 1496 1498 1500 1502 1503 1504 1506 1508 1509 1510 1511 1513 1514 1515 1515 1516 1516 1517
1465 1472 1469 1449 1436 1435 1440 1450 1442 1444 1447 1451 1455 1462 1464 1467 1469 1473 1476 1479 1482 1484 1486 1487 1489 1491 1493 1495 1497 1499 1500 1502 1503 1504 1505 1506 1507 1509 1510 1511 1512 1513 1513 1513
1465 1467 1456 1439 1435 1437 1453 1453 1444 1445 1448 1451 1454 1458 1463 1466 1469 1472 1475 1478 1480 1482 1484 1486 1488 1489 1491 1493 1494 1496 1498 1499 1500 1501 1502 1503 1504 1506 1507 1508 1508 1509 1509 1509
1461 1468 1461 1441 1438 1442 1446 1445 1446 1447 1450 1453 1456 1460 1463 1467 1470 1472 1475 1477 1479 1481 1482 1484 1486 1487 1488 1490 1492 1494 1495 1496 1497 1498 1499 1500 1501 1502 1503 1504 1504 1504 1505 1505
1450 1453 1447 1445 1444 1445 1445 1446 1447 1449 1451 1454 1457 1460 1464 1467 1470 1472 1475 1476 1478 1479 1481 1482 1484 1485 1487 1488 1490 1491 1492 1493 1494 1494 1495 1497 1497 1498 1499 1500 1501 1501 1501 1500
1445 1445 1445 1447 1447 1447 1447 1448 1449 1450 1452 1454 1457 1460 1464 1466 1469 1472 1474 1476 1477 1478 1479 1481 1482 1484 1485 1486 1488 1489 1489 1490 1491 1491 1492 1493 1494 1495 1495 1495 1496 1496 1497 1496
1444 1445 1446 1447 1448 1449 1449 1449 1450 1451 1453 1454 1457 1459 1463 1465 1468 1471 1473 1475 1476 1477 1478 1479 1481 1482 1483 1484 1485 1486 1486 1487 1488 1488 1489 1489 1490 1490 1491 1491 1491 1492 1491 1491
1447 1447 1447 1447 1449 1450 1450 1450 1451 1452 1454 1456 1457 1459 1461 1464 1467 1469 1471 1473 1475 1476 1477 1478 1479 1479 1480 1481 1482 1482 1483 1484 1485 1485 1485 1486 1486 1486 1486 1487 1487 1487 1487 1487
1449 1448 1448 1449 1449 1450 1450 1451 1451 1452 1454 1456 1457 1459 1461 1463 1466 1468 1470 1472 1473 1474 1476 1477 1478 1478 1479 1479 1479 1480 1480 1481 1481 1482 1482 1482 1481 1481 1481 1481 1481 1481 1482 1482
1449 1450 1449 1449 1450 1450 1451 1451 1452 1452 1454 1455 1457 1458 1460 1462 1464 1466 1468 1470 1472 1473 1474 1475 1475 1476 1476 1477 1477 1477 1477 1477 1478 1478 1478 1478 1477 1477 1477 1476 1476 1476 1476 1476
1449 1449 1449 1449 1449 1449 1450 1450 1451 1451 1453 1454 1456 1458 1459 1461 1463 1465 1467 1469 1470 1471 1472 1472 1473 1473 1474 1474 1474 1474 1474 1474 1474 1474 1474 1474 1473 1473 1473 1472 1472 1471 1472 1471
1447 1446 1446 1448 1448 1448 1448 1449 1450 1451 1452 1453 1454 1456 1458 1460 1461 1463 1465 1466 1467 1468 1469 1469 1470 1470 1471 1471 1471 1471 1471 1471 1471 1471 1471 1470 1470 1469 1469 1469 1468 1468 1467 1466
1445 1444 1445 1445 1446 1446 1446 1447 1447 1448 1450 1451 1452 1454 1456 1457 1459 1461 1463 1464 1465 1466 1466 1467 1467 1468 1468 1468 1468 1468 1468 1467 1467 1467 1467 1466 1466 1465 1465 1465 1464 1464 1463 1462
1442 1442 1443 1444 1444 1444 1444 1445 1447 1447 1448 1449 1451 1452 1453 1454 1456 1458 1460 1461 1462 1463 1464 1464 1465 1465 1465 1465 1465 1465 1465 1465 1464 1463 1463 1462 1462 1462 1461 1461 1460 1460 1459 1458
1438 1439 1440 1441 1441 1442 1443 1444 1445 1446 1448 1448 1448 1449 1450 1452 1454 1456 1457 1458 1459 1460 1461 1461 1461 1462 1462 1462 1462 1462 1462 1461 1460 1460 1459 1459 1458 1458 1457 1457 1456 1455 1455 1454
1436 1437 1438 1439 1440 1441 1442 1443 1444 1445 1446 1447 1447 1447 1448 1449 1452 1453 1455 1456 1457 1457 1458 1458 1458 1459 1458 1458 1459 1459 1458 1458 1457 1456 1455 1455 1454 1454 1453 1452 1452 1451 1451 1451
1434 1435 1437 1438 1439 1440 1441 1441 1442 1443 1444 1446 1446 1447 1448 1449 1451 1451 1452 1453 1454 1455 1455 1455 1456 1456 1456 1455 1456 1456 1455 1454 1454 1453 1452 1451 1451 1450 1449 1448 1448 1447 1447 1446
1433 1434 1436 1437 1438 1438 1439 1440 1441 1442 1443 1444 1445 1446 1447 1449 1449 1450 1450 1451 1452 1452 1452 1453 1453 1453 1453 1453 1453 1452 1452 1452 1451 1450 1449 1449 1448 1447 1446 1445 1445 1444 1443 1442
1434 1435 1435 1437 1437 1437 1438 1439 1440 1441 1442 1443 1444 1446 1447 1448 1448 1449 1449 1449 1449 1450 1450 1451 1451 1450 1451 1450 1451 1450 1450 1449 1449 1447 1446 1446 1445 1444 1443 1442 1442 1441 1440 1440
1434 1435 1435 1436 1437 1437 1438 1438 1440 1440 1441 1442 1443 1444 1446 1446 1446 1447 1446 1446 1447 1447 1448 1448 1448 1448 1448 1448 1448 1448 1448 1447 1446 1445 1444 1443 1442 1442 1441 1440 1439 1438 1437 1437
1434 1434 1435 1435 1436 1437 1437 1438 1439 1439 1440 1441 1442 1443 1444 1444 1444 1444 1444 1444 1444 1445 1445 1445 1445 1445 1446 1446 1446 1446 1445 1445 1444 1443 1442 1441 1440 1439 1438 1437 1436 1435 1435 1434
1433 1433 1434 1434 1435 1436 1437 1437 1438 1438 1439 1439 1440 1441 1442 1442 1442 1442 1442 1443 1443 1443 1444 1444 1444 1444 1444 1444 1444 1444 1443 1442 1442 1441 1440 1439 1438 1437 1436 1435 1433 1433 1432 1432
1431 1432 1432 1433 1434 1434 1435 1436 1436 1437 1437 1438 1438 1439 1440 1441 1441 1441 1441 1442 1442 1442 1442 1442 1443 1442 1442 1442 1442 1441 1441 1441 1440 1439 1438 1437 1436 1435 1433 1432 1432 1431 1430 1430